Location: Ames
(42.0350°N, 93.6200°W)
Time: 02:09:32
(UTC-05:00)

ISS - All Passes

Search period start: 30 April 2017 00:00
Search period end: 10 May 2017 00:00
Orbit: 401 x 409 km, 51.6° (Epoch: 01 May)

Date Brightness Start Highest point End Pass type
(mag) Time Alt. Az. Time Alt. Az. Time Alt. Az.
30 Apr - 07:27:40 10° SSW 07:30:46 42° SE 07:33:52 10° ENE daylight
30 Apr - 09:04:25 10° W 09:07:20 29° NNW 09:10:16 10° NE daylight
30 Apr - 10:42:34 10° NW 10:44:36 15° N 10:46:37 10° NE daylight
30 Apr - 12:19:22 10° NW 12:21:58 21° NNE 12:24:34 10° ENE daylight
30 Apr - 13:55:31 10° NW 13:58:48 86° SSW 14:02:03 10° SE daylight
01 May - 06:36:13 10° S 06:38:51 22° SE 06:41:28 10° E daylight
01 May - 08:12:00 10° WSW 08:15:09 45° NNW 08:18:19 10° NE daylight
01 May - 09:50:02 10° NW 09:52:15 17° N 09:54:28 10° NNE daylight
01 May - 11:27:22 10° NNW 11:29:40 17° N 11:31:58 10° NE daylight
01 May - 13:03:30 10° NW 13:06:42 53° NNE 13:09:54 10° ESE daylight
01 May - 14:40:35 10° W 14:42:57 19° SW 14:45:17 10° S daylight
02 May - 05:45:36 10° SSE 05:46:59 12° SE 05:48:22 10° ESE daylight
02 May - 07:19:46 10° WSW 07:23:03 79° NNW 07:26:18 10° NE daylight
02 May - 08:57:25 10° WNW 08:59:56 20° NNW 09:02:27 10° NE daylight
02 May - 10:35:15 10° NW 10:37:19 16° N 10:39:23 10° NE daylight
02 May - 12:11:32 10° NW 12:14:32 33° NNE 12:17:32 10° E daylight
02 May - 13:48:01 10° WNW 13:51:01 34° SW 13:54:01 10° SSE daylight
03 May - 06:27:48 10° SW 06:30:59 54° SE 06:34:11 10° ENE daylight
03 May - 08:04:49 10° W 08:07:39 26° NNW 08:10:28 10° NE daylight
03 May - 09:42:56 10° NW 09:44:57 15° N 09:46:57 10° NE daylight
03 May - 11:19:34 10° NW 11:22:17 24° NNE 11:25:00 10° ENE daylight
03 May - 12:55:47 10° WNW 12:59:02 67° SW 13:02:15 10° SE daylight
04 May - 05:36:08 10° SSW 05:39:00 28° SE 05:41:52 10° ENE visible
04 May - 07:12:19 10° W 07:15:24 38° NNW 07:18:30 10° NE daylight
04 May - 08:50:26 10° NW 08:52:34 16° N 08:54:42 10° NE daylight
04 May - 10:27:34 10° NW 10:29:58 19° NNE 10:32:23 10° ENE daylight
04 May - 12:03:41 10° NW 12:06:56 66° NNE 12:10:10 10° ESE daylight
04 May - 13:41:09 10° W 13:43:04 15° SW 13:44:59 10° SSW daylight
05 May - 04:45:03 10° S 04:47:04 15° SE 04:49:05 10° E visible
05 May - 06:19:58 10° WSW 06:23:13 63° NNW 06:26:29 10° NE daylight
05 May - 07:57:48 10° WNW 08:00:12 19° NNW 08:02:36 10° NE daylight
05 May - 09:35:27 10° NNW 09:37:36 16° N 09:39:45 10° NE daylight
05 May - 11:11:39 10° NW 11:14:45 39° NNE 11:17:50 10° E daylight
05 May - 12:48:19 10° WNW 12:51:09 27° SW 12:53:57 10° SSE daylight
06 May - 05:27:51 10° SW 05:31:06 70° SE 05:34:22 10° ENE visible
06 May - 07:05:09 10° WNW 07:07:51 23° NNW 07:10:34 10° NE daylight
06 May - 08:43:11 10° NW 08:45:11 15° N 08:47:12 10° NE daylight
06 May - 10:19:39 10° NW 10:22:29 26° NNE 10:25:19 10° E daylight
06 May - 11:55:57 10° WNW 11:59:08 52° SW 12:02:18 10° SE daylight
07 May - 04:36:01 10° SSW 04:39:02 36° SE 04:42:05 10° ENE visible
07 May - 06:12:33 10° W 06:15:33 32° NNW 06:18:33 10° NE daylight
07 May - 07:50:41 10° NW 07:52:46 16° N 07:54:50 10° NE daylight
07 May - 09:27:37 10° NW 09:30:09 20° NNE 09:32:41 10° ENE daylight
07 May - 11:03:45 10° NW 11:07:02 82° NE 11:10:17 10° ESE daylight
07 May - 12:41:51 10° WSW 12:43:04 12° SW 12:44:17 10° SSW daylight
08 May - 03:44:38 10° S 03:47:03 19° SE 03:49:29 10° E visible
08 May - 05:20:06 10° WSW 05:23:18 51° NNW 05:26:31 10° NE visible
08 May - 06:58:03 10° NW 07:00:21 17° N 07:02:39 10° NNE daylight
08 May - 08:35:31 10° NNW 08:37:46 17° N 08:40:00 10° NE daylight
08 May - 10:11:40 10° NW 10:14:51 46° NNE 10:18:00 10° ESE daylight
08 May - 11:48:33 10° W 11:51:08 22° SW 11:53:42 10° S daylight
09 May - 02:54:40 10° SE 02:55:08 10° SE 02:55:36 10° ESE visible
09 May - 04:27:51 10° SW 04:31:07 88° SE 04:34:24 10° NE visible
09 May - 06:05:21 10° WNW 06:07:56 21° NNW 06:10:33 10° NE daylight
09 May - 07:43:16 10° NW 07:45:19 15° N 07:47:22 10° NE daylight
09 May - 09:19:37 10° NW 09:22:34 30° NNE 09:25:30 10° E daylight
09 May - 10:56:01 10° WNW 10:59:07 41° SW 11:02:12 10° SSE daylight
